Year,Month,Day,Hour,Minute,Value (Times are PST for windgust in km/hr)
2013,09,29,00,21,3.20
2013,09,29,00,23,6.40
2013,09,29,00,24,6.40
2013,09,29,00,25,4.80
2013,09,29,00,29,4.80
2013,09,29,00,30,4.80
2013,09,29,00,34,3.20
2013,09,29,00,35,3.20
2013,09,29,00,36,3.20
2013,09,29,00,44,3.20
2013,09,29,00,45,3.20
2013,09,29,00,46,1.60
2013,09,29,00,47,3.20
2013,09,29,00,52,1.60
2013,09,29,00,53,6.40
2013,09,29,00,54,4.80
2013,09,29,00,55,4.80
2013,09,29,00,57,3.20
2013,09,29,01,00,4.80
2013,09,29,01,16,1.60
2013,09,29,01,22,6.40
2013,09,29,01,23,9.60
2013,09,29,01,24,8.10
2013,09,29,01,25,6.40
2013,09,29,01,26,6.40
2013,09,29,01,27,4.80
2013,09,29,01,28,6.40
2013,09,29,01,29,9.60
2013,09,29,01,30,6.40
2013,09,29,01,31,4.80
2013,09,29,01,32,6.40
2013,09,29,01,33,3.20
2013,09,29,01,34,9.60
2013,09,29,01,35,6.40
2013,09,29,01,39,8.10
2013,09,29,01,40,11.30
2013,09,29,01,41,11.30
2013,09,29,01,42,6.40
2013,09,29,01,43,4.80
2013,09,29,01,44,4.80
2013,09,29,01,45,4.80
2013,09,29,01,46,4.80
2013,09,29,01,51,4.80
2013,09,29,01,52,6.40
2013,09,29,01,53,3.20
2013,09,29,01,55,6.40
2013,09,29,01,57,3.20
2013,09,29,02,12,1.60
2013,09,29,02,23,3.20
2013,09,29,02,24,8.10
2013,09,29,02,25,8.10
2013,09,29,02,26,9.60
2013,09,29,02,27,6.40
2013,09,29,02,28,4.80
2013,09,29,02,30,4.80
2013,09,29,02,31,8.10
2013,09,29,02,32,8.10
2013,09,29,02,33,4.80
2013,09,29,02,36,1.60
2013,09,29,02,37,6.40
2013,09,29,02,38,1.60
2013,09,29,02,45,1.60
2013,09,29,03,07,3.20
2013,09,29,03,08,4.80
2013,09,29,03,09,3.20
2013,09,29,03,10,1.60
2013,09,29,03,12,4.80
2013,09,29,03,13,3.20
2013,09,29,03,18,3.20
2013,09,29,03,19,9.60
2013,09,29,03,20,6.40
2013,09,29,03,21,9.60
2013,09,29,03,22,4.80
2013,09,29,03,23,4.80
2013,09,29,03,24,1.60
2013,09,29,03,25,8.10
2013,09,29,03,26,6.40
2013,09,29,03,29,3.20
2013,09,29,03,30,9.60
2013,09,29,03,31,8.10
2013,09,29,03,32,12.90
2013,09,29,03,33,11.30
2013,09,29,03,35,9.60
2013,09,29,03,36,12.90
2013,09,29,03,37,8.10
2013,09,29,03,38,4.80
2013,09,29,03,39,4.80
2013,09,29,03,40,1.60
2013,09,29,03,42,4.80
2013,09,29,03,43,1.60
2013,09,29,03,45,4.80
2013,09,29,03,46,6.40
2013,09,29,03,56,4.80
2013,09,29,03,57,4.80
2013,09,29,04,00,3.20
2013,09,29,04,08,3.20
2013,09,29,04,09,4.80
2013,09,29,04,10,4.80
2013,09,29,04,11,1.60
2013,09,29,04,12,4.80
2013,09,29,04,13,4.80
2013,09,29,04,34,4.80
2013,09,29,04,35,4.80
2013,09,29,04,36,4.80
2013,09,29,04,37,6.40
2013,09,29,04,39,3.20
2013,09,29,04,40,4.80
2013,09,29,04,41,4.80
2013,09,29,04,42,3.20
2013,09,29,04,43,1.60
2013,09,29,04,44,1.60
2013,09,29,04,47,3.20
2013,09,29,04,49,6.40
2013,09,29,04,50,3.20
2013,09,29,04,51,4.80
2013,09,29,05,03,4.80
2013,09,29,05,05,3.20
2013,09,29,05,07,3.20
2013,09,29,05,08,1.60
2013,09,29,05,09,4.80
2013,09,29,05,10,4.80
2013,09,29,05,11,1.60
2013,09,29,05,12,3.20
2013,09,29,05,13,8.10
2013,09,29,05,15,4.80
2013,09,29,05,18,1.60
2013,09,29,05,19,1.60
2013,09,29,05,20,3.20
2013,09,29,05,21,4.80
2013,09,29,05,24,4.80
2013,09,29,05,26,6.40
2013,09,29,05,27,6.40
2013,09,29,05,30,1.60
2013,09,29,05,36,1.60
2013,09,29,05,37,9.60
2013,09,29,05,38,8.10
2013,09,29,05,39,6.40
2013,09,29,05,40,6.40
2013,09,29,05,41,8.10
2013,09,29,05,44,3.20
2013,09,29,05,46,8.10
2013,09,29,05,47,4.80
2013,09,29,05,48,6.40
2013,09,29,05,49,6.40
2013,09,29,05,50,4.80
2013,09,29,05,51,8.10
2013,09,29,05,52,8.10
2013,09,29,05,53,6.40
2013,09,29,05,54,4.80
2013,09,29,05,55,9.60
2013,09,29,05,56,8.10
2013,09,29,05,57,9.60
2013,09,29,05,58,8.10
2013,09,29,05,59,8.10
2013,09,29,06,00,14.50
2013,09,29,06,01,9.60
2013,09,29,06,02,11.30
2013,09,29,06,03,11.30
2013,09,29,06,04,8.10
2013,09,29,06,05,11.30
2013,09,29,06,06,8.10
2013,09,29,06,07,9.60
2013,09,29,06,08,8.10
2013,09,29,06,09,4.80
2013,09,29,06,10,12.90
2013,09,29,06,11,9.60
2013,09,29,06,12,16.10
2013,09,29,06,13,11.30
2013,09,29,06,14,8.10
2013,09,29,06,15,16.10
2013,09,29,06,16,9.60
2013,09,29,06,17,14.50
2013,09,29,06,18,8.10
2013,09,29,06,19,11.30
2013,09,29,06,20,16.10
2013,09,29,06,21,11.30
2013,09,29,06,22,8.10
2013,09,29,06,23,4.80
2013,09,29,06,24,6.40
2013,09,29,06,25,9.60
2013,09,29,06,26,11.30
2013,09,29,06,27,6.40
2013,09,29,06,28,11.30
2013,09,29,06,29,11.30
2013,09,29,06,30,8.10
2013,09,29,06,31,9.60
2013,09,29,06,32,11.30
2013,09,29,06,33,8.10
2013,09,29,06,34,11.30
2013,09,29,06,35,8.10
2013,09,29,06,36,8.10
2013,09,29,06,37,8.10
2013,09,29,06,38,11.30
2013,09,29,06,39,11.30
2013,09,29,06,40,17.70
2013,09,29,06,41,16.10
2013,09,29,06,42,11.30
2013,09,29,06,43,17.70
2013,09,29,06,44,16.10
2013,09,29,06,45,8.10
2013,09,29,06,46,12.90
2013,09,29,06,47,12.90
2013,09,29,06,48,17.70
2013,09,29,06,49,9.60
2013,09,29,06,50,14.50
2013,09,29,06,51,12.90
2013,09,29,06,52,9.60
2013,09,29,06,53,14.50
2013,09,29,06,54,14.50
2013,09,29,06,55,6.40
2013,09,29,06,56,14.50
2013,09,29,06,57,14.50
2013,09,29,06,58,14.50
2013,09,29,06,59,14.50
2013,09,29,07,00,14.50
2013,09,29,07,01,20.90
2013,09,29,07,02,14.50
2013,09,29,07,03,8.10
2013,09,29,07,04,12.90
2013,09,29,07,05,11.30
2013,09,29,07,06,11.30
2013,09,29,07,07,8.10
2013,09,29,07,08,16.10
2013,09,29,07,09,9.60
2013,09,29,07,10,11.30
2013,09,29,07,11,11.30
2013,09,29,07,12,8.10
2013,09,29,07,13,1.60
2013,09,29,07,14,11.30
2013,09,29,07,18,1.60
2013,09,29,07,19,6.40
2013,09,29,07,20,3.20
2013,09,29,07,21,8.10
2013,09,29,07,22,9.60
2013,09,29,07,23,4.80
2013,09,29,07,24,9.60
2013,09,29,07,25,9.60
2013,09,29,07,26,4.80
2013,09,29,07,28,8.10
2013,09,29,07,29,3.20
2013,09,29,07,30,8.10
2013,09,29,07,31,9.60
2013,09,29,07,32,11.30
2013,09,29,07,33,8.10
2013,09,29,07,34,6.40
2013,09,29,07,35,9.60
2013,09,29,07,36,16.10
2013,09,29,07,37,17.70
2013,09,29,07,38,16.10
2013,09,29,07,39,11.30
2013,09,29,07,40,8.10
2013,09,29,07,41,14.50
2013,09,29,07,42,14.50
2013,09,29,07,43,14.50
2013,09,29,07,44,11.30
2013,09,29,07,45,16.10
2013,09,29,07,46,16.10
2013,09,29,07,47,14.50
2013,09,29,07,48,11.30
2013,09,29,07,49,12.90
2013,09,29,07,50,14.50
2013,09,29,07,51,16.10
2013,09,29,07,52,16.10
2013,09,29,07,53,16.10
2013,09,29,07,54,6.40
2013,09,29,07,55,9.60
2013,09,29,07,56,9.60
2013,09,29,07,57,8.10
2013,09,29,07,58,9.60
2013,09,29,07,59,8.10
2013,09,29,08,00,11.30
2013,09,29,08,01,8.10
2013,09,29,08,02,9.60
2013,09,29,08,03,11.30
2013,09,29,08,04,9.60
2013,09,29,08,05,16.10
2013,09,29,08,06,11.30
2013,09,29,08,07,16.10
2013,09,29,08,08,9.60
2013,09,29,08,09,16.10
2013,09,29,08,10,11.30
2013,09,29,08,11,3.20
2013,09,29,08,12,11.30
2013,09,29,08,13,9.60
2013,09,29,08,14,8.10
2013,09,29,08,15,9.60
2013,09,29,08,16,9.60
2013,09,29,08,17,8.10
2013,09,29,08,18,9.60
2013,09,29,08,19,6.40
2013,09,29,08,20,11.30
2013,09,29,08,21,8.10
2013,09,29,08,22,8.10
2013,09,29,08,23,6.40
2013,09,29,08,24,6.40
2013,09,29,08,25,4.80
2013,09,29,08,27,11.30
2013,09,29,08,28,11.30
2013,09,29,08,29,11.30
2013,09,29,08,30,14.50
2013,09,29,08,31,14.50
2013,09,29,08,32,16.10
2013,09,29,08,33,11.30
2013,09,29,08,34,11.30
2013,09,29,08,35,9.60
2013,09,29,08,36,12.90
2013,09,29,08,37,8.10
2013,09,29,08,38,9.60
2013,09,29,08,39,8.10
2013,09,29,08,40,8.10
2013,09,29,08,44,1.60
2013,09,29,08,45,1.60
2013,09,29,08,47,8.10
2013,09,29,08,49,9.60
2013,09,29,08,50,11.30
2013,09,29,08,51,4.80
2013,09,29,08,52,8.10
2013,09,29,08,53,8.10
2013,09,29,08,54,9.60
2013,09,29,08,55,9.60
2013,09,29,08,56,6.40
2013,09,29,08,57,8.10
2013,09,29,08,58,9.60
2013,09,29,08,59,8.10
2013,09,29,09,00,12.90
2013,09,29,09,01,9.60
2013,09,29,09,02,9.60
2013,09,29,09,03,14.50
2013,09,29,09,04,8.10
2013,09,29,09,05,1.60
2013,09,29,09,06,8.10
2013,09,29,09,07,17.70
2013,09,29,09,08,6.40
2013,09,29,09,09,11.30
2013,09,29,09,10,11.30
2013,09,29,09,11,16.10
2013,09,29,09,12,8.10
2013,09,29,09,13,9.60
2013,09,29,09,14,6.40
2013,09,29,09,15,6.40
2013,09,29,09,16,4.80
2013,09,29,09,29,3.20
2013,09,29,09,30,1.60
2013,09,29,09,36,3.20
2013,09,29,09,41,3.20
2013,09,29,09,42,1.60
2013,09,29,09,43,3.20
2013,09,29,09,48,3.20
2013,09,29,09,49,3.20
2013,09,29,09,50,8.10
2013,09,29,09,51,8.10
2013,09,29,09,52,6.40
2013,09,29,09,53,6.40
2013,09,29,09,54,4.80
2013,09,29,09,55,8.10
2013,09,29,09,57,4.80
2013,09,29,09,58,9.60
2013,09,29,09,59,6.40
2013,09,29,10,09,1.60
2013,09,29,10,12,4.80
2013,09,29,10,13,4.80
2013,09,29,10,19,4.80
2013,09,29,10,20,4.80
2013,09,29,10,21,4.80
2013,09,29,10,22,1.60
2013,09,29,10,25,3.20
2013,09,29,10,26,3.20
2013,09,29,10,27,14.50
2013,09,29,10,28,11.30
2013,09,29,10,29,11.30
2013,09,29,10,30,8.10
2013,09,29,10,31,6.40
2013,09,29,10,32,8.10
2013,09,29,10,33,6.40
2013,09,29,10,34,6.40
2013,09,29,10,35,4.80
2013,09,29,10,36,6.40
2013,09,29,10,37,3.20
2013,09,29,10,38,1.60
2013,09,29,10,40,1.60
2013,09,29,10,41,8.10
2013,09,29,10,42,6.40
2013,09,29,10,43,6.40
2013,09,29,10,44,8.10
2013,09,29,10,45,9.60
2013,09,29,10,46,19.30
2013,09,29,10,47,17.70
2013,09,29,10,48,20.90
2013,09,29,10,49,17.70
2013,09,29,10,50,11.30
2013,09,29,10,51,8.10
2013,09,29,10,52,9.60
2013,09,29,10,53,9.60
2013,09,29,10,54,9.60
2013,09,29,10,55,6.40
2013,09,29,10,56,9.60
2013,09,29,10,57,14.50
2013,09,29,10,58,8.10
2013,09,29,10,59,12.90
2013,09,29,11,00,11.30
2013,09,29,11,01,9.60
2013,09,29,11,03,4.80
2013,09,29,11,04,3.20
2013,09,29,11,05,8.10
2013,09,29,11,06,3.20
2013,09,29,11,10,4.80
2013,09,29,11,11,3.20
2013,09,29,11,12,4.80
2013,09,29,11,15,6.40
2013,09,29,11,16,4.80
2013,09,29,11,21,8.10
2013,09,29,11,22,3.20
2013,09,29,11,23,6.40
2013,09,29,11,24,4.80
2013,09,29,11,25,3.20
2013,09,29,11,26,1.60
2013,09,29,11,27,1.60
2013,09,29,11,28,6.40
2013,09,29,11,29,6.40
2013,09,29,11,30,6.40
2013,09,29,11,31,11.30
2013,09,29,11,32,11.30
2013,09,29,11,33,11.30
2013,09,29,11,34,9.60
2013,09,29,11,35,4.80
2013,09,29,11,37,1.60
2013,09,29,11,41,6.40
2013,09,29,11,42,8.10
2013,09,29,11,43,9.60
2013,09,29,11,44,4.80
2013,09,29,11,45,3.20
2013,09,29,11,47,3.20
2013,09,29,11,53,3.20
2013,09,29,11,54,1.60
2013,09,29,11,56,1.60
2013,09,29,11,58,3.20
2013,09,29,11,59,3.20
2013,09,29,12,05,3.20
2013,09,29,12,06,3.20
2013,09,29,12,12,1.60
2013,09,29,12,13,4.80
2013,09,29,12,14,6.40
2013,09,29,12,21,1.60
2013,09,29,12,23,4.80
2013,09,29,12,24,1.60
2013,09,29,12,28,4.80
2013,09,29,12,29,3.20
2013,09,29,12,30,4.80
2013,09,29,12,33,1.60
2013,09,29,12,34,1.60
2013,09,29,12,35,1.60
2013,09,29,12,37,6.40
2013,09,29,12,40,1.60
2013,09,29,12,41,4.80
2013,09,29,12,42,1.60
2013,09,29,12,43,6.40
2013,09,29,12,44,4.80
2013,09,29,12,45,6.40
2013,09,29,12,46,6.40
2013,09,29,12,47,3.20
2013,09,29,12,48,6.40
2013,09,29,12,49,6.40
2013,09,29,12,50,3.20
2013,09,29,12,51,4.80
2013,09,29,12,52,6.40
2013,09,29,12,53,1.60
2013,09,29,12,58,1.60
2013,09,29,12,59,4.80
2013,09,29,13,00,3.20
2013,09,29,13,02,6.40
2013,09,29,13,03,1.60
2013,09,29,13,04,1.60
2013,09,29,13,05,6.40
2013,09,29,13,07,1.60
2013,09,29,13,08,6.40
2013,09,29,13,09,4.80
2013,09,29,13,10,6.40
2013,09,29,13,13,6.40
2013,09,29,13,14,4.80
2013,09,29,13,15,8.10
2013,09,29,13,16,6.40
2013,09,29,13,17,4.80
2013,09,29,13,18,1.60
2013,09,29,13,19,6.40
2013,09,29,13,20,4.80
2013,09,29,13,24,1.60
2013,09,29,13,25,4.80
2013,09,29,13,26,4.80
2013,09,29,13,27,3.20
2013,09,29,13,30,1.60
2013,09,29,13,32,3.20
2013,09,29,13,33,3.20
2013,09,29,13,34,1.60
2013,09,29,13,35,4.80
2013,09,29,13,40,4.80
2013,09,29,13,41,3.20
2013,09,29,13,43,3.20
2013,09,29,13,44,4.80
2013,09,29,13,45,4.80
2013,09,29,13,47,1.60
2013,09,29,13,57,1.60
2013,09,29,14,00,1.60
2013,09,29,14,01,3.20
2013,09,29,14,06,3.20
2013,09,29,14,07,3.20
2013,09,29,14,10,8.10
2013,09,29,14,11,4.80
2013,09,29,14,12,6.40
2013,09,29,14,13,8.10
2013,09,29,14,14,8.10
2013,09,29,14,15,8.10
2013,09,29,14,16,9.60
2013,09,29,14,17,9.60
2013,09,29,14,18,9.60
2013,09,29,14,19,9.60
2013,09,29,14,20,8.10
2013,09,29,14,21,8.10
2013,09,29,14,22,9.60
2013,09,29,14,23,8.10
2013,09,29,14,24,6.40
2013,09,29,14,25,4.80
2013,09,29,14,26,6.40
2013,09,29,14,27,1.60
2013,09,29,14,33,1.60
2013,09,29,14,36,1.60
2013,09,29,14,42,3.20
2013,09,29,14,45,4.80
2013,09,29,14,46,8.10
2013,09,29,14,47,6.40
2013,09,29,14,48,4.80
2013,09,29,14,49,8.10
2013,09,29,14,50,6.40
2013,09,29,14,51,9.60
2013,09,29,14,52,4.80
2013,09,29,14,53,4.80
2013,09,29,14,55,8.10
2013,09,29,14,56,6.40
2013,09,29,14,57,4.80
2013,09,29,14,58,4.80
2013,09,29,14,59,3.20
2013,09,29,15,00,6.40
2013,09,29,15,01,8.10
2013,09,29,15,02,6.40
2013,09,29,15,03,4.80
2013,09,29,15,04,6.40
2013,09,29,15,05,9.60
2013,09,29,15,06,8.10
2013,09,29,15,07,6.40
2013,09,29,15,09,1.60
2013,09,29,15,10,4.80
2013,09,29,15,13,3.20
2013,09,29,15,14,3.20
2013,09,29,15,17,1.60
2013,09,29,15,18,3.20
2013,09,29,15,19,4.80
2013,09,29,15,20,3.20
2013,09,29,15,21,1.60
2013,09,29,15,22,3.20
2013,09,29,15,23,3.20
2013,09,29,15,24,6.40
2013,09,29,15,25,4.80
2013,09,29,15,26,9.60
2013,09,29,15,27,6.40
2013,09,29,15,28,6.40
2013,09,29,15,29,8.10
2013,09,29,15,30,16.10
2013,09,29,15,31,16.10
2013,09,29,15,32,11.30
2013,09,29,15,33,14.50
2013,09,29,15,34,6.40
2013,09,29,15,35,8.10
2013,09,29,15,36,8.10
2013,09,29,15,37,9.60
2013,09,29,15,38,9.60
2013,09,29,15,39,17.70
2013,09,29,15,40,14.50
2013,09,29,15,41,14.50
2013,09,29,15,42,12.90
2013,09,29,15,43,9.60
2013,09,29,15,44,9.60
2013,09,29,15,45,3.20
2013,09,29,15,46,9.60
2013,09,29,15,47,14.50
2013,09,29,15,48,17.70
2013,09,29,15,49,17.70
2013,09,29,15,50,8.10
2013,09,29,15,51,14.50
2013,09,29,15,52,20.90
2013,09,29,15,53,22.50
2013,09,29,15,54,20.90
2013,09,29,15,55,14.50
2013,09,29,15,56,4.80
2013,09,29,15,57,16.10
2013,09,29,15,58,19.30
2013,09,29,15,59,20.90
2013,09,29,16,00,19.30
2013,09,29,16,01,11.30
2013,09,29,16,02,12.90
2013,09,29,16,03,30.60
2013,09,29,16,04,20.90
2013,09,29,16,05,19.30
2013,09,29,16,06,29.00
2013,09,29,16,07,22.50
2013,09,29,16,08,35.40
2013,09,29,16,09,24.20
2013,09,29,16,10,25.70
2013,09,29,16,11,25.70
2013,09,29,16,12,22.50
2013,09,29,16,13,35.40
2013,09,29,16,14,32.20
2013,09,29,16,15,24.20
2013,09,29,16,16,32.20
2013,09,29,16,17,22.50
2013,09,29,16,18,27.40
2013,09,29,16,19,20.90
2013,09,29,16,20,27.40
2013,09,29,16,21,20.90
2013,09,29,16,22,20.90
2013,09,29,16,23,29.00
2013,09,29,16,24,32.20
2013,09,29,16,25,25.70
2013,09,29,16,26,19.30
2013,09,29,16,27,22.50
2013,09,29,16,28,29.00
2013,09,29,16,29,24.20
2013,09,29,16,30,29.00
2013,09,29,16,31,19.30
2013,09,29,16,32,32.20
2013,09,29,16,33,25.70
2013,09,29,16,34,24.20
2013,09,29,16,35,19.30
2013,09,29,16,36,37.00
2013,09,29,16,37,32.20
2013,09,29,16,38,22.50
2013,09,29,16,39,24.20
2013,09,29,16,40,40.20
2013,09,29,16,41,32.20
2013,09,29,16,42,43.50
2013,09,29,16,43,33.80
2013,09,29,16,44,29.00
2013,09,29,16,45,35.40
2013,09,29,16,46,40.20
2013,09,29,16,47,33.80
2013,09,29,16,48,37.00
2013,09,29,16,49,32.20
2013,09,29,16,50,33.80
2013,09,29,16,51,38.60
2013,09,29,16,52,33.80
2013,09,29,16,53,38.60
2013,09,29,16,54,38.60
2013,09,29,16,55,38.60
2013,09,29,16,56,45.10
2013,09,29,16,57,35.40
2013,09,29,16,58,32.20
2013,09,29,16,59,35.40
2013,09,29,17,00,51.50
2013,09,29,17,01,38.60
2013,09,29,17,02,37.00
2013,09,29,17,03,33.80
2013,09,29,17,04,29.00
2013,09,29,17,05,37.00
2013,09,29,17,06,37.00
2013,09,29,17,07,30.60
2013,09,29,17,08,30.60
2013,09,29,17,09,33.80
2013,09,29,17,10,37.00
2013,09,29,17,11,46.70
2013,09,29,17,12,48.30
2013,09,29,17,13,48.30
2013,09,29,17,14,35.40
2013,09,29,17,15,49.90
2013,09,29,17,16,33.80
2013,09,29,17,17,46.70
2013,09,29,17,18,32.20
2013,09,29,17,19,33.80
2013,09,29,17,20,30.60
2013,09,29,17,21,48.30
2013,09,29,17,22,46.70
2013,09,29,17,23,32.20
2013,09,29,17,24,32.20
2013,09,29,17,25,43.50
2013,09,29,17,26,49.90
2013,09,29,17,27,49.90
2013,09,29,17,28,35.40
2013,09,29,17,29,32.20
2013,09,29,17,30,32.20
2013,09,29,17,31,32.20
2013,09,29,17,32,43.50
2013,09,29,17,33,48.30
2013,09,29,17,34,37.00
2013,09,29,17,35,33.80
2013,09,29,17,36,32.20
2013,09,29,17,37,48.30
2013,09,29,17,38,46.70
2013,09,29,17,39,33.80
2013,09,29,17,40,32.20
2013,09,29,17,41,51.50
2013,09,29,17,42,53.10
2013,09,29,17,43,48.30
2013,09,29,17,44,40.20
2013,09,29,17,45,38.60
2013,09,29,17,46,40.20
2013,09,29,17,47,40.20
2013,09,29,17,48,43.50
2013,09,29,17,49,37.00
2013,09,29,17,50,38.60
2013,09,29,17,51,35.40
2013,09,29,17,52,27.40
2013,09,29,17,53,30.60
2013,09,29,17,54,35.40
2013,09,29,17,55,51.50
2013,09,29,17,56,37.00
2013,09,29,17,57,35.40
2013,09,29,17,58,30.60
2013,09,29,17,59,35.40
2013,09,29,18,00,27.40
2013,09,29,18,01,30.60
2013,09,29,18,02,41.80
2013,09,29,18,03,40.20
2013,09,29,18,04,45.10
2013,09,29,18,05,35.40
2013,09,29,18,06,43.50
2013,09,29,18,07,45.10
2013,09,29,18,08,48.30
2013,09,29,18,09,38.60
2013,09,29,18,10,45.10
2013,09,29,18,11,35.40
2013,09,29,18,12,45.10
2013,09,29,18,13,43.50
2013,09,29,18,14,43.50
2013,09,29,18,15,35.40
2013,09,29,18,16,43.50
2013,09,29,18,17,46.70
2013,09,29,18,18,41.80
2013,09,29,18,19,45.10
2013,09,29,18,20,35.40
2013,09,29,18,21,38.60
2013,09,29,18,22,45.10
2013,09,29,18,23,27.40
2013,09,29,18,24,35.40
2013,09,29,18,25,32.20
2013,09,29,18,26,45.10
2013,09,29,18,27,41.80
2013,09,29,18,28,43.50
2013,09,29,18,29,41.80
2013,09,29,18,30,27.40
2013,09,29,18,31,35.40
2013,09,29,18,32,59.50
2013,09,29,18,33,46.70
2013,09,29,18,34,32.20
2013,09,29,18,35,45.10
2013,09,29,18,36,46.70
2013,09,29,18,37,38.60
2013,09,29,18,38,38.60
2013,09,29,18,39,40.20
2013,09,29,18,40,32.20
2013,09,29,18,41,40.20
2013,09,29,18,42,41.80
2013,09,29,18,43,40.20
2013,09,29,18,44,45.10
2013,09,29,18,45,40.20
2013,09,29,18,46,40.20
2013,09,29,18,47,30.60
2013,09,29,18,48,43.50
2013,09,29,18,49,33.80
2013,09,29,18,50,32.20
2013,09,29,18,51,41.80
2013,09,29,18,52,41.80
2013,09,29,18,53,56.30
2013,09,29,18,54,56.30
2013,09,29,18,55,38.60
2013,09,29,18,56,45.10
2013,09,29,18,57,40.20
2013,09,29,18,58,66.00
2013,09,29,18,59,30.60
2013,09,29,19,00,37.00
2013,09,29,19,01,54.70
2013,09,29,19,02,49.90
2013,09,29,19,03,53.10
2013,09,29,19,04,32.20
2013,09,29,19,05,40.20
2013,09,29,19,06,49.90
2013,09,29,19,07,54.70
2013,09,29,19,08,37.00
2013,09,29,19,09,25.70
2013,09,29,19,10,27.40
2013,09,29,19,11,35.40
2013,09,29,19,12,43.50
2013,09,29,19,13,37.00
2013,09,29,19,14,35.40
2013,09,29,19,15,32.20
2013,09,29,19,16,27.40
2013,09,29,19,17,22.50
2013,09,29,19,18,38.60
2013,09,29,19,19,25.70
2013,09,29,19,20,43.50
2013,09,29,19,21,53.10
2013,09,29,19,22,33.80
2013,09,29,19,23,33.80
2013,09,29,19,24,43.50
2013,09,29,19,25,33.80
2013,09,29,19,26,37.00
2013,09,29,19,27,32.20
2013,09,29,19,28,20.90
2013,09,29,19,29,30.60
2013,09,29,19,30,29.00
2013,09,29,19,31,22.50
2013,09,29,19,32,22.50
2013,09,29,19,33,20.90
2013,09,29,19,34,22.50
2013,09,29,19,35,19.30
2013,09,29,19,36,27.40
2013,09,29,19,37,17.70
2013,09,29,19,38,24.20
2013,09,29,19,39,17.70
2013,09,29,19,40,19.30
2013,09,29,19,41,25.70
2013,09,29,19,42,16.10
2013,09,29,19,43,20.90
2013,09,29,19,44,19.30
2013,09,29,19,45,9.60
2013,09,29,19,46,8.10
2013,09,29,19,47,19.30
2013,09,29,19,48,11.30
2013,09,29,19,49,9.60
2013,09,29,19,50,17.70
2013,09,29,19,51,29.00
2013,09,29,19,52,33.80
2013,09,29,19,53,30.60
2013,09,29,19,54,32.20
2013,09,29,19,55,30.60
2013,09,29,19,56,32.20
2013,09,29,19,57,32.20
2013,09,29,19,58,41.80
2013,09,29,19,59,27.40
2013,09,29,20,00,30.60
2013,09,29,20,01,37.00
2013,09,29,20,02,30.60
2013,09,29,20,03,20.90
2013,09,29,20,04,14.50
2013,09,29,20,05,16.10
2013,09,29,20,06,14.50
2013,09,29,20,07,20.90
2013,09,29,20,08,20.90
2013,09,29,20,09,16.10
2013,09,29,20,10,14.50
2013,09,29,20,11,14.50
2013,09,29,20,12,20.90
2013,09,29,20,13,22.50
2013,09,29,20,14,24.20
2013,09,29,20,15,22.50
2013,09,29,20,16,19.30
2013,09,29,20,17,19.30
2013,09,29,20,18,20.90
2013,09,29,20,19,22.50
2013,09,29,20,20,22.50
2013,09,29,20,21,19.30
2013,09,29,20,22,24.20
2013,09,29,20,23,19.30
2013,09,29,20,24,24.20
2013,09,29,20,25,17.70
2013,09,29,20,26,24.20
2013,09,29,20,27,19.30
2013,09,29,20,28,17.70
2013,09,29,20,29,19.30
2013,09,29,20,30,16.10
2013,09,29,20,31,14.50
2013,09,29,20,32,24.20
2013,09,29,20,33,12.90
2013,09,29,20,34,14.50
2013,09,29,20,35,16.10
2013,09,29,20,36,24.20
2013,09,29,20,37,20.90
2013,09,29,20,38,22.50
2013,09,29,20,39,20.90
2013,09,29,20,40,19.30
2013,09,29,20,41,11.30
2013,09,29,20,42,16.10
2013,09,29,20,43,11.30
2013,09,29,20,44,14.50
2013,09,29,20,45,14.50
2013,09,29,20,46,11.30
2013,09,29,20,47,17.70
2013,09,29,20,48,19.30
2013,09,29,20,49,19.30
2013,09,29,20,50,30.60
2013,09,29,20,51,22.50
2013,09,29,20,52,22.50
2013,09,29,20,53,20.90
2013,09,29,20,54,14.50
2013,09,29,20,55,14.50
2013,09,29,20,56,19.30
2013,09,29,20,57,48.30
2013,09,29,20,58,49.90
2013,09,29,20,59,35.40
2013,09,29,21,00,33.80
2013,09,29,21,01,33.80
2013,09,29,21,02,33.80
2013,09,29,21,03,27.40
2013,09,29,21,04,24.20
2013,09,29,21,05,33.80
2013,09,29,21,06,30.60
2013,09,29,21,07,33.80
2013,09,29,21,08,30.60
2013,09,29,21,09,27.40
2013,09,29,21,10,37.00
2013,09,29,21,11,35.40
2013,09,29,21,12,24.20
2013,09,29,21,13,53.10
2013,09,29,21,14,43.50
2013,09,29,21,15,37.00
2013,09,29,21,16,43.50
2013,09,29,21,17,30.60
2013,09,29,21,18,22.50
2013,09,29,21,19,24.20
2013,09,29,21,20,37.00
2013,09,29,21,21,40.20
2013,09,29,21,22,37.00
2013,09,29,21,23,25.70
2013,09,29,21,24,32.20
2013,09,29,21,25,35.40
2013,09,29,21,26,40.20
2013,09,29,21,27,37.00
2013,09,29,21,28,41.80
2013,09,29,21,29,48.30
2013,09,29,21,30,38.60
2013,09,29,21,31,29.00
2013,09,29,21,32,32.20
2013,09,29,21,33,40.20
2013,09,29,21,34,22.50
2013,09,29,21,35,29.00
2013,09,29,21,36,27.40
2013,09,29,21,37,35.40
2013,09,29,21,38,35.40
2013,09,29,21,39,27.40
2013,09,29,21,40,24.20
2013,09,29,21,41,20.90
2013,09,29,21,42,19.30
2013,09,29,21,43,22.50
2013,09,29,21,44,25.70
2013,09,29,21,45,30.60
2013,09,29,21,46,30.60
2013,09,29,21,47,20.90
2013,09,29,21,48,32.20
2013,09,29,21,49,32.20
2013,09,29,21,50,33.80
2013,09,29,21,51,29.00
2013,09,29,21,52,25.70
2013,09,29,21,53,17.70
2013,09,29,21,54,14.50
2013,09,29,21,55,32.20
2013,09,29,21,56,20.90
2013,09,29,21,57,33.80
2013,09,29,21,58,24.20
2013,09,29,21,59,16.10
2013,09,29,22,00,22.50
2013,09,29,22,01,20.90
2013,09,29,22,02,24.20
2013,09,29,22,03,16.10
2013,09,29,22,04,11.30
2013,09,29,22,05,14.50
2013,09,29,22,06,22.50
2013,09,29,22,07,24.20
2013,09,29,22,08,19.30
2013,09,29,22,09,16.10
2013,09,29,22,10,22.50
2013,09,29,22,11,30.60
2013,09,29,22,12,25.70
2013,09,29,22,13,25.70
2013,09,29,22,14,22.50
2013,09,29,22,15,22.50
2013,09,29,22,16,19.30
2013,09,29,22,17,14.50
2013,09,29,22,18,14.50
2013,09,29,22,19,27.40
2013,09,29,22,20,19.30
2013,09,29,22,21,14.50
2013,09,29,22,22,16.10
2013,09,29,22,23,16.10
2013,09,29,22,24,19.30
2013,09,29,22,25,24.20
2013,09,29,22,26,17.70
2013,09,29,22,27,27.40
2013,09,29,22,28,16.10
2013,09,29,22,29,20.90
2013,09,29,22,30,22.50
2013,09,29,22,31,20.90
2013,09,29,22,32,14.50
2013,09,29,22,33,22.50
2013,09,29,22,34,20.90
2013,09,29,22,35,20.90
2013,09,29,22,36,17.70
2013,09,29,22,37,20.90
2013,09,29,22,38,20.90
2013,09,29,22,39,11.30
2013,09,29,22,40,14.50
2013,09,29,22,41,24.20
2013,09,29,22,42,16.10
2013,09,29,22,43,19.30
2013,09,29,22,44,24.20
2013,09,29,22,45,19.30
2013,09,29,22,46,19.30
2013,09,29,22,47,32.20
2013,09,29,22,48,25.70
2013,09,29,22,49,19.30
2013,09,29,22,50,11.30
2013,09,29,22,51,11.30
2013,09,29,22,52,11.30
2013,09,29,22,53,11.30
2013,09,29,22,54,11.30
2013,09,29,22,55,17.70
2013,09,29,22,56,22.50
2013,09,29,22,57,20.90
2013,09,29,22,58,22.50
2013,09,29,22,59,17.70
2013,09,29,23,00,19.30
2013,09,29,23,01,16.10
2013,09,29,23,02,11.30
2013,09,29,23,03,16.10
2013,09,29,23,04,20.90
2013,09,29,23,05,16.10
2013,09,29,23,06,22.50
2013,09,29,23,07,24.20
2013,09,29,23,08,20.90
2013,09,29,23,09,19.30
2013,09,29,23,10,16.10
2013,09,29,23,11,20.90
2013,09,29,23,12,16.10
2013,09,29,23,13,29.00
2013,09,29,23,14,17.70
2013,09,29,23,15,20.90
2013,09,29,23,16,20.90
2013,09,29,23,17,30.60
2013,09,29,23,18,27.40
2013,09,29,23,19,14.50
2013,09,29,23,20,27.40
2013,09,29,23,21,20.90
2013,09,29,23,22,14.50
2013,09,29,23,23,20.90
2013,09,29,23,24,20.90
2013,09,29,23,25,20.90
2013,09,29,23,26,19.30
2013,09,29,23,27,17.70
2013,09,29,23,28,20.90
2013,09,29,23,29,24.20
2013,09,29,23,30,22.50
2013,09,29,23,31,17.70
2013,09,29,23,32,22.50
2013,09,29,23,33,14.50
2013,09,29,23,34,17.70
2013,09,29,23,35,20.90
2013,09,29,23,36,19.30
2013,09,29,23,37,9.60
2013,09,29,23,38,16.10
2013,09,29,23,39,22.50
2013,09,29,23,40,20.90
2013,09,29,23,41,17.70
2013,09,29,23,42,20.90
2013,09,29,23,43,11.30
2013,09,29,23,44,19.30